AAL2395 KMIA-MGGT

Flight info

Callsign AAL2395
Flight time 2h 16m
Altitude 38000
Route GLADZ4 LULLS Y262 MAXIM DCT CZM UG765 TIKIS TIKIS2C
Aircraft B38M/M-SDE1FGHILORVWXY/HB1

Departure

Time 2026-04-24 20:09
Airport Miami International Airport (KMIA)

Arrival

Time 2026-04-24 22:25
Airport La Aurora International Airport (MGGT)
Time Latitude Longitude Altitude Speed Heading
2026-04-24 19:46 25.79895 -80.27399 18 ft 0 kts 132°
2026-04-24 19:59 25.79895 -80.27400 18 ft 1 kts 132°
2026-04-24 19:59 25.79905 -80.27412 18 ft 3 kts 132°
2026-04-24 19:59 25.79919 -80.27429 19 ft 3 kts 132°
2026-04-24 20:00 25.79932 -80.27445 18 ft 3 kts 132°
2026-04-24 20:00 25.79945 -80.27461 18 ft 3 kts 138°
2026-04-24 20:00 25.79961 -80.27472 18 ft 3 kts 164°
2026-04-24 20:00 25.79977 -80.27473 19 ft 3 kts 210°
2026-04-24 20:01 25.79988 -80.27459 20 ft 3 kts 256°
2026-04-24 20:01 25.79989 -80.27447 19 ft 2 kts 267°
2026-04-24 20:01 25.79990 -80.27428 21 ft 2 kts 267°
2026-04-24 20:01 25.79990 -80.27425 13 ft 1 kts 267°
2026-04-24 20:03 25.79992 -80.27443 22 ft 7 kts 280°
2026-04-24 20:04 25.80052 -80.27523 20 ft 19 kts 309°
2026-04-24 20:04 25.80063 -80.27678 17 ft 22 kts 267°
2026-04-24 20:04 25.80055 -80.27857 17 ft 24 kts 268°
2026-04-24 20:04 25.80046 -80.28054 16 ft 27 kts 267°
2026-04-24 20:05 25.80039 -80.28244 17 ft 20 kts 267°
2026-04-24 20:05 25.80034 -80.28410 17 ft 23 kts 266°
2026-04-24 20:05 25.80025 -80.28590 18 ft 24 kts 267°
2026-04-24 20:05 25.80016 -80.28785 19 ft 26 kts 266°
2026-04-24 20:06 25.80008 -80.28996 18 ft 28 kts 267°
2026-04-24 20:06 25.80001 -80.29172 19 ft 21 kts 267°
2026-04-24 20:06 25.79992 -80.29342 19 ft 23 kts 268°
2026-04-24 20:06 25.79986 -80.29530 17 ft 26 kts 267°
2026-04-24 20:07 25.79980 -80.29669 17 ft 27 kts 267°
2026-04-24 20:07 25.79971 -80.29897 16 ft 16 kts 267°
2026-04-24 20:07 25.79973 -80.29951 16 ft 7 kts 282°
2026-04-24 20:07 25.79989 -80.30023 16 ft 14 kts 285°
2026-04-24 20:08 25.80046 -80.30113 16 ft 11 kts 360°
2026-04-24 20:08 25.80076 -80.30041 15 ft 13 kts 91°
2026-04-24 20:08 25.80084 -80.29800 16 ft 66 kts 88°
2026-04-24 20:08 25.80114 -80.29025 20 ft 134 kts 88°
2026-04-24 20:09 25.80179 -80.27816 256 ft 169 kts 87°
2026-04-24 20:09 25.80309 -80.26463 989 ft 184 kts 86°
2026-04-24 20:09 25.80418 -80.24982 1712 ft 198 kts 88°
2026-04-24 20:09 25.80467 -80.23375 2381 ft 219 kts 91°
2026-04-24 20:10 25.80507 -80.21633 3039 ft 238 kts 89°
2026-04-24 20:10 25.80559 -80.19787 4067 ft 242 kts 86°
2026-04-24 20:10 25.81060 -80.17934 4767 ft 262 kts 58°
2026-04-24 20:10 25.82375 -80.16495 5511 ft 274 kts 27°
2026-04-24 20:11 25.84208 -80.15923 6481 ft 278 kts
2026-04-24 20:11 25.86152 -80.15862 7466 ft 280 kts
2026-04-24 20:11 25.88113 -80.15785 8495 ft 282 kts 360°
2026-04-24 20:11 25.90044 -80.15981 9469 ft 282 kts 341°
2026-04-24 20:12 25.91931 -80.16645 10346 ft 289 kts 341°
2026-04-24 20:12 25.93919 -80.17321 10853 ft 308 kts 341°
2026-04-24 20:12 25.96001 -80.18109 11430 ft 320 kts 332°
2026-04-24 20:12 25.97745 -80.19578 12271 ft 320 kts 309°
2026-04-24 20:13 25.98873 -80.21720 13207 ft 323 kts 289°
2026-04-24 20:13 25.99329 -80.24173 14084 ft 326 kts 279°
2026-04-24 20:13 25.99661 -80.26689 14873 ft 330 kts 277°
2026-04-24 20:13 25.99717 -80.29247 15646 ft 333 kts 270°
2026-04-24 20:14 25.99718 -80.31845 16369 ft 337 kts 271°
2026-04-24 20:14 25.99730 -80.34461 17162 ft 340 kts 271°
2026-04-24 20:14 25.99746 -80.37078 17890 ft 343 kts 271°
2026-04-24 20:14 25.99762 -80.39748 18615 ft 347 kts 270°
2026-04-24 20:15 25.99378 -80.42414 19274 ft 352 kts 252°
2026-04-24 20:15 25.98213 -80.44798 19967 ft 360 kts 236°
2026-04-24 20:15 25.96697 -80.47043 20577 ft 365 kts 236°
2026-04-24 20:15 25.95151 -80.49299 21192 ft 368 kts 235°
2026-04-24 20:16 25.93572 -80.51571 21815 ft 371 kts 235°
2026-04-24 20:16 25.91975 -80.53850 22434 ft 375 kts 235°
2026-04-24 20:16 25.90371 -80.56125 23030 ft 380 kts 235°
2026-04-24 20:16 25.88732 -80.58445 23587 ft 383 kts 235°
2026-04-24 20:17 25.87076 -80.60786 24067 ft 387 kts 235°
2026-04-24 20:17 25.83717 -80.65531 25032 ft 392 kts 235°
2026-04-24 20:17 25.82043 -80.67894 25495 ft 394 kts 235°
2026-04-24 20:18 25.80915 -80.69484 25793 ft 396 kts 235°
2026-04-24 20:18 25.78768 -80.72816 26382 ft 395 kts 247°
2026-04-24 20:18 25.77837 -80.75672 26823 ft 394 kts 255°
2026-04-24 20:18 25.77009 -80.78554 27208 ft 397 kts 255°
2026-04-24 20:19 25.76181 -80.81495 27673 ft 399 kts 256°
2026-04-24 20:19 25.75360 -80.84461 28106 ft 402 kts 256°
2026-04-24 20:19 25.74543 -80.87439 28556 ft 404 kts 256°
2026-04-24 20:19 25.73733 -80.90403 28969 ft 407 kts 256°
2026-04-24 20:20 25.72909 -80.93418 29381 ft 409 kts 257°
2026-04-24 20:20 25.72081 -80.96447 29832 ft 410 kts 257°
2026-04-24 20:20 25.71247 -80.99495 30186 ft 413 kts 257°
2026-04-24 20:20 25.70420 -81.02515 30526 ft 415 kts 257°
2026-04-24 20:21 25.69578 -81.05588 30885 ft 416 kts 258°
2026-04-24 20:21 25.68734 -81.08664 31240 ft 418 kts 258°
2026-04-24 20:21 25.67884 -81.11758 31568 ft 420 kts 258°
2026-04-24 20:21 25.67033 -81.14857 31937 ft 421 kts 258°
2026-04-24 20:22 25.66186 -81.17935 32296 ft 423 kts 258°
2026-04-24 20:22 25.65316 -81.21058 32657 ft 425 kts 256°
2026-04-24 20:22 25.63970 -81.24007 33119 ft 435 kts 240°
2026-04-24 20:22 25.61912 -81.26525 33593 ft 445 kts 230°
2026-04-24 20:23 25.59639 -81.28851 33975 ft 445 kts 230°
2026-04-24 20:23 25.57355 -81.31172 34367 ft 444 kts 230°
2026-04-24 20:23 25.55066 -81.33469 34732 ft 443 kts 230°
2026-04-24 20:23 25.52773 -81.35754 35074 ft 443 kts 230°
2026-04-24 20:24 25.51252 -81.37263 35285 ft 443 kts 230°
2026-04-24 20:24 25.48212 -81.40276 35719 ft 442 kts 230°
2026-04-24 20:24 25.45913 -81.42553 36026 ft 442 kts 230°
2026-04-24 20:24 25.43621 -81.44821 36330 ft 441 kts 230°
2026-04-24 20:25 25.41332 -81.47086 36626 ft 441 kts 230°
2026-04-24 20:25 25.39046 -81.49346 36902 ft 440 kts 230°
2026-04-24 20:25 25.36783 -81.51581 37174 ft 440 kts 231°
2026-04-24 20:25 25.34491 -81.53846 37445 ft 440 kts 231°
2026-04-24 20:26 25.32200 -81.56107 37707 ft 440 kts 231°
2026-04-24 20:26 25.29915 -81.58361 37936 ft 440 kts 231°
2026-04-24 20:26 25.25374 -81.62837 37949 ft 438 kts 231°
2026-04-24 20:27 25.20830 -81.67312 37941 ft 437 kts 231°
2026-04-24 20:27 25.15991 -81.71420 37924 ft 456 kts 214°
2026-04-24 20:28 25.09898 -81.73854 37894 ft 467 kts 208°
2026-04-24 20:28 25.03731 -81.76134 37965 ft 470 kts 207°
2026-04-24 20:29 24.97498 -81.78382 37952 ft 470 kts 207°
2026-04-24 20:29 24.91314 -81.80606 37955 ft 470 kts 207°
2026-04-24 20:30 24.85088 -81.82841 37964 ft 470 kts 207°
2026-04-24 20:30 24.78855 -81.85076 37940 ft 470 kts 207°
2026-04-24 20:31 24.72651 -81.87300 37960 ft 472 kts 207°
2026-04-24 20:31 24.66399 -81.89537 37953 ft 472 kts 207°
2026-04-24 20:32 24.60143 -81.91774 37954 ft 472 kts 207°
2026-04-24 20:32 24.53911 -81.94000 37953 ft 472 kts 207°
2026-04-24 20:33 24.48052 -81.96848 37927 ft 441 kts 229°
2026-04-24 20:33 24.43668 -82.01418 37928 ft 433 kts 236°
2026-04-24 20:34 24.39475 -82.06165 37948 ft 432 kts 237°
2026-04-24 20:34 24.35366 -82.10918 37944 ft 431 kts 237°
2026-04-24 20:35 24.31244 -82.15709 37944 ft 431 kts 237°
2026-04-24 20:35 24.27122 -82.20497 37944 ft 431 kts 237°
2026-04-24 20:36 24.23022 -82.25254 37944 ft 431 kts 237°
2026-04-24 20:36 24.18900 -82.30033 37906 ft 431 kts 237°
2026-04-24 20:37 24.14769 -82.34817 37943 ft 432 kts 237°
2026-04-24 20:37 24.10663 -82.39567 37936 ft 431 kts 237°
2026-04-24 20:38 24.06525 -82.44349 37930 ft 430 kts 237°
2026-04-24 20:38 24.02427 -82.49081 37935 ft 429 kts 237°
2026-04-24 20:39 23.98534 -82.53929 37944 ft 423 kts 242°
2026-04-24 20:39 23.94772 -82.58914 37931 ft 424 kts 241°
2026-04-24 20:40 23.90993 -82.63871 37937 ft 424 kts 241°
2026-04-24 20:40 23.87228 -82.68801 37916 ft 424 kts 241°
2026-04-24 20:41 23.83438 -82.73756 37925 ft 425 kts 241°
2026-04-24 20:41 23.79643 -82.78713 37913 ft 424 kts 241°
2026-04-24 20:42 23.75882 -82.83621 37929 ft 423 kts 241°
2026-04-24 20:42 23.72710 -82.87758 37929 ft 423 kts 241°
2026-04-24 20:43 23.68330 -82.93463 37926 ft 423 kts 241°
2026-04-24 20:43 23.65181 -82.97561 37927 ft 423 kts 241°
2026-04-24 20:44 23.61396 -83.02482 37925 ft 423 kts 241°
2026-04-24 20:44 23.57601 -83.07410 37910 ft 423 kts 241°
2026-04-24 20:45 23.53817 -83.12320 37925 ft 424 kts 241°
2026-04-24 20:45 23.50016 -83.17247 37908 ft 424 kts 241°
2026-04-24 20:46 23.46238 -83.22140 37928 ft 424 kts 241°
2026-04-24 20:46 23.42436 -83.27059 37924 ft 424 kts 241°
2026-04-24 20:47 23.38631 -83.31977 37925 ft 424 kts 241°
2026-04-24 20:47 23.34853 -83.36855 37924 ft 424 kts 241°
2026-04-24 20:48 23.31042 -83.41770 37924 ft 424 kts 241°
2026-04-24 20:48 23.27252 -83.46655 37906 ft 425 kts 241°
2026-04-24 20:49 23.23421 -83.51587 37920 ft 426 kts 241°
2026-04-24 20:49 23.19592 -83.56512 37906 ft 427 kts 241°
2026-04-24 20:50 23.15774 -83.61418 37915 ft 427 kts 241°
2026-04-24 20:50 23.11921 -83.66364 37920 ft 427 kts 241°
2026-04-24 20:51 23.08077 -83.71293 37918 ft 427 kts 241°
2026-04-24 20:51 23.04254 -83.76192 37931 ft 427 kts 241°
2026-04-24 20:52 23.00408 -83.81113 37923 ft 427 kts 240°
2026-04-24 20:52 22.96552 -83.86045 37908 ft 428 kts 240°
2026-04-24 20:53 22.92701 -83.90964 37921 ft 430 kts 240°
2026-04-24 20:53 22.88827 -83.95908 37923 ft 429 kts 240°
2026-04-24 20:54 22.84974 -84.00821 37919 ft 429 kts 240°
2026-04-24 20:54 22.81094 -84.05763 37919 ft 429 kts 240°
2026-04-24 20:55 22.77246 -84.10660 37921 ft 429 kts 240°
2026-04-24 20:55 22.73358 -84.15604 37922 ft 429 kts 240°
2026-04-24 20:56 22.69501 -84.20502 37921 ft 429 kts 240°
2026-04-24 20:56 22.65604 -84.25447 37901 ft 430 kts 240°
2026-04-24 20:57 22.61729 -84.30360 37915 ft 431 kts 240°
2026-04-24 20:57 22.57835 -84.35291 37915 ft 430 kts 240°
2026-04-24 20:58 22.53966 -84.40187 37912 ft 430 kts 240°
2026-04-24 20:58 22.50072 -84.45110 37912 ft 430 kts 240°
2026-04-24 20:59 22.46171 -84.50036 37911 ft 430 kts 240°
2026-04-24 20:59 22.42296 -84.54926 37911 ft 430 kts 240°
2026-04-24 21:00 22.38390 -84.59849 37913 ft 430 kts 240°
2026-04-24 21:00 22.34511 -84.64735 37902 ft 431 kts 240°
2026-04-24 21:01 22.30590 -84.69668 37904 ft 432 kts 240°
2026-04-24 21:01 22.26672 -84.74593 37908 ft 432 kts 240°
2026-04-24 21:02 22.22751 -84.79517 37908 ft 432 kts 240°
2026-04-24 21:02 22.18857 -84.84402 37909 ft 432 kts 240°
2026-04-24 21:03 22.14929 -84.89327 37912 ft 432 kts 240°
2026-04-24 21:03 22.11025 -84.94215 37909 ft 432 kts 240°
2026-04-24 21:04 22.07102 -84.99124 37906 ft 432 kts 239°
2026-04-24 21:04 22.03170 -85.04039 37897 ft 433 kts 239°
2026-04-24 21:05 21.99246 -85.08938 37908 ft 434 kts 239°
2026-04-24 21:05 21.95296 -85.13868 37904 ft 434 kts 239°
2026-04-24 21:06 21.91338 -85.18801 37904 ft 434 kts 239°
2026-04-24 21:06 21.87407 -85.23697 37905 ft 434 kts 239°
2026-04-24 21:07 21.83451 -85.28619 37894 ft 434 kts 239°
2026-04-24 21:07 21.79495 -85.33537 37894 ft 434 kts 239°
2026-04-24 21:08 21.75562 -85.38420 37899 ft 434 kts 239°
2026-04-24 21:08 21.71600 -85.43335 37865 ft 434 kts 238°
2026-04-24 21:09 21.67656 -85.48226 37898 ft 436 kts 238°
2026-04-24 21:09 21.63679 -85.53152 37894 ft 435 kts 238°
2026-04-24 21:10 21.59703 -85.58072 37895 ft 435 kts 238°
2026-04-24 21:10 21.55752 -85.62956 37896 ft 435 kts 238°
2026-04-24 21:11 21.51765 -85.67881 37896 ft 435 kts 238°
2026-04-24 21:11 21.47802 -85.72771 37893 ft 435 kts 238°
2026-04-24 21:12 21.44470 -85.76880 37892 ft 435 kts 238°
2026-04-24 21:12 21.39838 -85.82586 37893 ft 435 kts 238°
2026-04-24 21:13 21.35870 -85.87469 37893 ft 436 kts 238°
2026-04-24 21:13 21.31881 -85.92374 37890 ft 436 kts 238°
2026-04-24 21:14 21.27894 -85.97272 37887 ft 435 kts 238°
2026-04-24 21:14 21.23929 -86.02138 37888 ft 435 kts 238°
2026-04-24 21:15 21.19929 -86.07044 37890 ft 436 kts 238°
2026-04-24 21:15 21.15956 -86.11912 37888 ft 436 kts 238°
2026-04-24 21:16 21.11959 -86.16804 37887 ft 436 kts 238°
2026-04-24 21:16 21.07954 -86.21702 37864 ft 436 kts 238°
2026-04-24 21:17 21.03975 -86.26565 37875 ft 437 kts 238°
2026-04-24 21:17 21.00638 -86.30638 37887 ft 436 kts 238°
2026-04-24 21:18 20.95980 -86.36321 37887 ft 437 kts 238°
2026-04-24 21:18 20.91962 -86.41217 37885 ft 437 kts 238°
2026-04-24 21:19 20.87945 -86.46109 37878 ft 437 kts 238°
2026-04-24 21:19 20.83955 -86.50963 37887 ft 437 kts 238°
2026-04-24 21:20 20.77929 -86.58288 37877 ft 437 kts 237°
2026-04-24 21:21 20.73933 -86.63140 37878 ft 437 kts 237°
2026-04-24 21:21 20.69896 -86.68037 37873 ft 438 kts 237°
2026-04-24 21:22 20.65885 -86.72899 37871 ft 438 kts 237°
2026-04-24 21:22 20.61858 -86.77777 37871 ft 437 kts 237°
2026-04-24 21:23 20.57840 -86.82638 37872 ft 438 kts 237°
2026-04-24 21:23 20.53794 -86.87530 37869 ft 438 kts 237°
2026-04-24 21:24 20.49437 -86.92076 37856 ft 453 kts 222°
2026-04-24 21:24 20.44212 -86.95888 37812 ft 454 kts 223°
2026-04-24 21:25 20.39003 -86.99673 37876 ft 456 kts 222°
2026-04-24 21:25 20.33731 -87.03475 37870 ft 455 kts 222°
2026-04-24 21:26 20.28506 -87.07238 37872 ft 456 kts 222°
2026-04-24 21:26 20.23247 -87.11022 37864 ft 456 kts 222°
2026-04-24 21:27 20.17979 -87.14809 37867 ft 456 kts 222°
2026-04-24 21:27 20.12742 -87.18572 37870 ft 456 kts 222°
2026-04-24 21:28 20.07499 -87.22337 37870 ft 456 kts 222°
2026-04-24 21:28 20.02223 -87.26122 37864 ft 456 kts 222°
2026-04-24 21:29 19.96985 -87.29877 37865 ft 456 kts 221°
2026-04-24 21:29 19.91716 -87.33650 37852 ft 456 kts 221°
2026-04-24 21:30 19.86449 -87.37420 37865 ft 456 kts 221°
2026-04-24 21:30 19.81219 -87.41160 37859 ft 456 kts 221°
2026-04-24 21:31 19.75951 -87.44925 37847 ft 456 kts 221°
2026-04-24 21:31 19.71569 -87.48058 37856 ft 456 kts 221°
2026-04-24 21:32 19.65436 -87.52439 37856 ft 456 kts 221°
2026-04-24 21:32 19.60161 -87.56203 37854 ft 456 kts 221°
2026-04-24 21:33 19.55771 -87.59328 37855 ft 456 kts 221°
2026-04-24 21:33 19.50486 -87.63088 37854 ft 456 kts 221°
2026-04-24 21:34 19.45232 -87.66823 37854 ft 456 kts 221°
2026-04-24 21:34 19.39946 -87.70578 37856 ft 458 kts 221°
2026-04-24 21:35 19.34643 -87.74341 37840 ft 458 kts 220°
2026-04-24 21:35 19.29365 -87.78084 37842 ft 458 kts 220°
2026-04-24 21:36 19.24063 -87.81841 37842 ft 458 kts 220°
2026-04-24 21:36 19.18754 -87.85600 37843 ft 458 kts 220°
2026-04-24 21:37 19.13488 -87.89326 37831 ft 458 kts 220°
2026-04-24 21:37 19.08173 -87.93083 37823 ft 459 kts 220°
2026-04-24 21:38 19.02841 -87.96849 37836 ft 461 kts 220°
2026-04-24 21:38 18.97516 -88.00608 37837 ft 461 kts 220°
2026-04-24 21:39 18.92209 -88.04351 37828 ft 461 kts 220°
2026-04-24 21:39 18.86870 -88.08113 37828 ft 461 kts 220°
2026-04-24 21:40 18.81546 -88.11861 37831 ft 460 kts 220°
2026-04-24 21:40 18.76213 -88.15615 37825 ft 460 kts 220°
2026-04-24 21:41 18.70868 -88.19373 37830 ft 462 kts 220°
2026-04-24 21:41 18.65553 -88.23106 37829 ft 462 kts 220°
2026-04-24 21:42 18.60197 -88.26866 37827 ft 462 kts 220°
2026-04-24 21:42 18.54831 -88.30631 37827 ft 462 kts 220°
2026-04-24 21:43 18.49374 -88.34159 37833 ft 467 kts 213°
2026-04-24 21:43 18.43630 -88.37375 37816 ft 466 kts 214°
2026-04-24 21:44 18.37917 -88.40643 37823 ft 467 kts 214°
2026-04-24 21:44 18.32233 -88.43898 37829 ft 467 kts 214°
2026-04-24 21:45 18.26511 -88.47174 37820 ft 467 kts 214°
2026-04-24 21:45 18.20818 -88.50430 37815 ft 467 kts 214°
2026-04-24 21:46 18.15105 -88.53696 37821 ft 467 kts 214°
2026-04-24 21:46 18.09387 -88.56961 37820 ft 467 kts 214°
2026-04-24 21:47 18.03705 -88.60203 37818 ft 467 kts 214°
2026-04-24 21:47 17.97988 -88.63464 37805 ft 467 kts 214°
2026-04-24 21:48 17.92304 -88.66703 37811 ft 467 kts 214°
2026-04-24 21:48 17.86577 -88.69964 37808 ft 467 kts 214°
2026-04-24 21:49 17.80895 -88.73197 37808 ft 467 kts 214°
2026-04-24 21:49 17.75168 -88.76453 37813 ft 467 kts 214°
2026-04-24 21:50 17.69456 -88.79698 37802 ft 466 kts 214°
2026-04-24 21:50 17.63780 -88.82921 37803 ft 466 kts 213°
2026-04-24 21:51 17.58058 -88.86167 37801 ft 466 kts 213°
2026-04-24 21:51 17.52342 -88.89409 37806 ft 466 kts 213°
2026-04-24 21:52 17.46652 -88.92632 37804 ft 466 kts 213°
2026-04-24 21:52 17.40967 -88.95850 37808 ft 466 kts 213°
2026-04-24 21:53 17.35258 -88.99080 37807 ft 465 kts 213°
2026-04-24 21:53 17.29547 -89.02308 37804 ft 465 kts 213°
2026-04-24 21:54 17.23877 -89.05511 37808 ft 465 kts 213°
2026-04-24 21:54 17.18167 -89.08735 37807 ft 465 kts 213°
2026-04-24 21:55 17.12486 -89.11940 37811 ft 465 kts 213°
2026-04-24 21:55 17.06782 -89.15152 37806 ft 465 kts 213°
2026-04-24 21:56 17.01061 -89.18320 37808 ft 464 kts 212°
2026-04-24 21:56 16.95358 -89.21481 37814 ft 463 kts 212°
2026-04-24 21:57 16.89691 -89.24620 37797 ft 462 kts 212°
2026-04-24 21:57 16.83997 -89.27773 37800 ft 461 kts 212°
2026-04-24 21:58 16.78353 -89.30894 37803 ft 462 kts 212°
2026-04-24 21:58 16.72675 -89.34058 37799 ft 460 kts 215°
2026-04-24 21:59 16.67218 -89.37473 37794 ft 458 kts 214°
2026-04-24 21:59 16.61757 -89.40846 37795 ft 456 kts 214°
2026-04-24 22:00 16.56278 -89.44223 37794 ft 456 kts 214°
2026-04-24 22:00 16.50801 -89.47595 37799 ft 456 kts 214°
2026-04-24 22:01 16.45366 -89.50940 37635 ft 451 kts 214°
2026-04-24 22:01 16.42662 -89.52604 36817 ft 454 kts 214°
2026-04-24 22:01 16.39908 -89.54298 35903 ft 460 kts 214°
2026-04-24 22:01 16.37187 -89.55970 35365 ft 457 kts 214°
2026-04-24 22:02 16.34455 -89.57649 34952 ft 452 kts 214°
2026-04-24 22:02 16.31754 -89.59309 34497 ft 448 kts 214°
2026-04-24 22:02 16.29072 -89.60955 33984 ft 445 kts 214°
2026-04-24 22:02 16.26460 -89.62559 33378 ft 435 kts 214°
2026-04-24 22:03 16.23875 -89.64145 32841 ft 425 kts 214°
2026-04-24 22:03 16.21359 -89.65689 32372 ft 413 kts 214°
2026-04-24 22:03 16.18916 -89.67187 31953 ft 402 kts 214°
2026-04-24 22:03 16.16526 -89.68653 31512 ft 392 kts 214°
2026-04-24 22:04 16.14230 -89.70061 31080 ft 385 kts 214°
2026-04-24 22:04 16.11887 -89.71497 30655 ft 393 kts 214°
2026-04-24 22:04 16.09513 -89.72952 30222 ft 397 kts 213°
2026-04-24 22:04 16.07133 -89.74409 29766 ft 396 kts 213°
2026-04-24 22:05 16.04760 -89.75862 29267 ft 394 kts 213°
2026-04-24 22:05 16.02394 -89.77311 28825 ft 392 kts 213°
2026-04-24 22:05 16.00071 -89.78732 28413 ft 391 kts 213°
2026-04-24 22:06 15.99117 -89.79316 28234 ft 390 kts 213°
2026-04-24 22:06 15.96772 -89.80751 27842 ft 389 kts 213°
2026-04-24 22:06 15.94442 -89.82176 27420 ft 387 kts 213°
2026-04-24 22:06 15.92148 -89.83579 27036 ft 386 kts 213°
2026-04-24 22:07 15.89834 -89.84993 26636 ft 384 kts 213°
2026-04-24 22:07 15.87525 -89.86404 26231 ft 383 kts 213°
2026-04-24 22:07 15.85231 -89.87806 25831 ft 382 kts 213°
2026-04-24 22:07 15.82940 -89.89205 25441 ft 381 kts 213°
2026-04-24 22:08 15.80689 -89.90579 25049 ft 380 kts 213°
2026-04-24 22:08 15.78408 -89.91972 24646 ft 380 kts 213°
2026-04-24 22:08 15.76114 -89.93372 24204 ft 382 kts 213°
2026-04-24 22:08 15.73818 -89.94773 23820 ft 381 kts 213°
2026-04-24 22:09 15.71557 -89.96152 23442 ft 381 kts 212°
2026-04-24 22:09 15.69275 -89.97544 22986 ft 380 kts 212°
2026-04-24 22:09 15.66995 -89.98933 22578 ft 378 kts 212°
2026-04-24 22:09 15.64735 -90.00310 22227 ft 376 kts 212°
2026-04-24 22:10 15.62488 -90.01680 21884 ft 373 kts 212°
2026-04-24 22:10 15.60252 -90.03042 21518 ft 370 kts 212°
2026-04-24 22:10 15.58035 -90.04393 21158 ft 368 kts 212°
2026-04-24 22:10 15.55827 -90.05737 20769 ft 366 kts 212°
2026-04-24 22:11 15.53657 -90.07057 20420 ft 364 kts 212°
2026-04-24 22:11 15.51472 -90.08388 20037 ft 363 kts 212°
2026-04-24 22:11 15.49297 -90.09712 19709 ft 361 kts 212°
2026-04-24 22:11 15.47127 -90.11032 19320 ft 360 kts 212°
2026-04-24 22:12 15.44961 -90.12351 18931 ft 360 kts 212°
2026-04-24 22:12 15.42831 -90.13649 18575 ft 358 kts 212°
2026-04-24 22:12 15.40689 -90.14952 18205 ft 356 kts 212°
2026-04-24 22:12 15.38563 -90.16244 17749 ft 348 kts 212°
2026-04-24 22:13 15.36507 -90.17496 17365 ft 336 kts 212°
2026-04-24 22:13 15.34519 -90.18704 17025 ft 325 kts 212°
2026-04-24 22:13 15.32589 -90.19876 16690 ft 319 kts 213°
2026-04-24 22:13 15.30716 -90.21017 16374 ft 312 kts 212°
2026-04-24 22:14 15.28845 -90.22153 16050 ft 311 kts 213°
2026-04-24 22:14 15.26973 -90.23291 15720 ft 311 kts 213°
2026-04-24 22:14 15.25093 -90.24435 15376 ft 316 kts 213°
2026-04-24 22:14 15.23183 -90.25596 15048 ft 318 kts 212°
2026-04-24 22:15 15.21299 -90.26739 14735 ft 317 kts 213°
2026-04-24 22:15 15.19393 -90.27896 14406 ft 316 kts 212°
2026-04-24 22:15 15.17487 -90.29053 14071 ft 316 kts 212°
2026-04-24 22:15 15.15586 -90.30205 13723 ft 315 kts 212°
2026-04-24 22:16 15.13719 -90.31338 13390 ft 314 kts 212°
2026-04-24 22:16 15.11837 -90.32480 13043 ft 312 kts 212°
2026-04-24 22:16 15.09968 -90.33613 12706 ft 307 kts 212°
2026-04-24 22:16 15.08143 -90.34720 12391 ft 301 kts 213°
2026-04-24 22:17 15.06341 -90.35814 12086 ft 296 kts 212°
2026-04-24 22:17 15.04574 -90.36834 11764 ft 293 kts 209°
2026-04-24 22:17 15.02760 -90.37776 11432 ft 289 kts 207°
2026-04-24 22:17 15.00947 -90.38644 11152 ft 286 kts 203°
2026-04-24 22:18 14.99108 -90.39471 10860 ft 287 kts 200°
2026-04-24 22:18 14.97266 -90.40200 10557 ft 286 kts 199°
2026-04-24 22:18 14.95380 -90.40830 10273 ft 282 kts 195°
2026-04-24 22:18 14.93515 -90.41420 9973 ft 277 kts 195°
2026-04-24 22:19 14.91698 -90.41999 9785 ft 266 kts 197°
2026-04-24 22:19 14.89976 -90.42553 9522 ft 258 kts 197°
2026-04-24 22:19 14.88289 -90.43097 9241 ft 251 kts 197°
2026-04-24 22:19 14.86639 -90.43629 9071 ft 245 kts 197°
2026-04-24 22:20 14.85564 -90.43976 8998 ft 244 kts 197°
2026-04-24 22:20 14.83944 -90.44498 8891 ft 243 kts 197°
2026-04-24 22:20 14.82329 -90.45019 8775 ft 242 kts 197°
2026-04-24 22:20 14.80713 -90.45540 8635 ft 242 kts 197°
2026-04-24 22:21 14.79113 -90.46055 8535 ft 240 kts 197°
2026-04-24 22:21 14.77537 -90.46563 8411 ft 239 kts 197°
2026-04-24 22:21 14.75952 -90.47074 8244 ft 238 kts 197°
2026-04-24 22:21 14.74383 -90.47580 8076 ft 232 kts 197°
2026-04-24 22:22 14.72895 -90.48059 7959 ft 215 kts 197°
2026-04-24 22:22 14.71478 -90.48516 7677 ft 212 kts 197°
2026-04-24 22:22 14.70079 -90.48966 7314 ft 213 kts 198°
2026-04-24 22:22 14.68685 -90.49413 7034 ft 202 kts 197°
2026-04-24 22:23 14.67413 -90.49821 6748 ft 182 kts 199°
2026-04-24 22:23 14.66249 -90.50195 6442 ft 166 kts 198°
2026-04-24 22:23 14.65181 -90.50540 6161 ft 157 kts 197°
2026-04-24 22:23 14.64149 -90.50872 5980 ft 155 kts 198°
2026-04-24 22:24 14.63122 -90.51207 5785 ft 158 kts 199°
2026-04-24 22:24 14.62076 -90.51544 5686 ft 155 kts 197°
2026-04-24 22:24 14.61036 -90.51880 5425 ft 157 kts 196°
2026-04-24 22:24 14.59999 -90.52208 5155 ft 155 kts 194°
2026-04-24 22:25 14.58971 -90.52539 4943 ft 150 kts 195°
2026-04-24 22:25 14.58081 -90.52827 4906 ft 113 kts 197°
2026-04-24 22:25 14.57519 -90.53007 4883 ft 32 kts 197°
2026-04-24 22:25 14.57441 -90.53078 4880 ft 9 kts 306°
2026-04-24 22:26 14.57495 -90.53090 4878 ft 8 kts 12°
2026-04-24 22:26 14.57547 -90.53072 4882 ft 8 kts 17°
2026-04-24 22:26 14.57640 -90.53042 4881 ft 20 kts 17°
2026-04-24 22:26 14.57786 -90.52995 4884 ft 23 kts 18°
2026-04-24 22:27 14.57931 -90.52950 4891 ft 21 kts 16°
2026-04-24 22:27 14.58059 -90.52906 4903 ft 19 kts 18°
2026-04-24 22:27 14.58181 -90.52867 4907 ft 19 kts 17°
2026-04-24 22:27 14.58301 -90.52828 4910 ft 18 kts 17°
2026-04-24 22:28 14.58418 -90.52790 4913 ft 18 kts 18°
2026-04-24 22:28 14.58541 -90.52750 4914 ft 19 kts 18°
2026-04-24 22:28 14.58653 -90.52717 4918 ft 12 kts
2026-04-24 22:28 14.58696 -90.52764 4924 ft 8 kts 289°
2026-04-24 22:29 14.58811 -90.52810 4921 ft 19 kts 16°
2026-04-24 22:29 14.58960 -90.52763 4922 ft 24 kts 19°
2026-04-24 22:29 14.59119 -90.52710 4923 ft 22 kts 17°
2026-04-24 22:30 14.59216 -90.52731 4923 ft 14 kts 284°
2026-04-24 22:30 14.59237 -90.52837 4922 ft 16 kts 281°
2026-04-24 22:30 14.59225 -90.52931 4922 ft 11 kts 229°
2026-04-24 22:30 14.59173 -90.52960 4922 ft 7 kts 188°
2026-04-24 22:31 14.59157 -90.52945 4924 ft 2 kts 89°
2026-04-24 22:31 14.59155 -90.52924 4924 ft 4 kts 106°
2026-04-24 22:31 14.59150 -90.52907 4925 ft 1 kts 107°
2026-04-24 22:31 14.59149 -90.52904 4925 ft 0 kts 107°